Location: Newark
(46.1292°N, 1.0086°W)
Time: 18:34:35
(UTC+00:00)

Vanguard 3 - Pass Details

Date: 22 November 2019
Orbit: 508 x 3263 km, 33.3° (Epoch: 14 December)

Event Time Altitude Azimuth Distance (km) Brightness Sun altitude
Rises 10:46:46 0° 199° (SSW) 6,120 12.5 22.2°
Reaches altitude 10° 10:51:31 10° 188° (S) 5,472 12.8 22.4°
Maximum altitude 11:04:33 26° 139° (SE) 4,828 12.4 23.0°
Drops below altitude 10° 11:18:57 10° 93° (E) 6,129 11.8 23.4°
Sets 11:24:37 0° 83° (E) 6,973 11.9 23.5°
